Regional Weather Roundup
Issued by NWS New Orleans/Baton Rouge, LA

Home | Current Version | Previous Version | Text Only | Print | Product List | Glossary On
Versions: 1 2 3 4 5 6 7 8 9 10 11 12 13 14 15 16 17 18 19 20 21 22 23 24 25 26 27 28 29 30 31 32 33 34 35 36 37 38 39 40 41 42 43 44 45 46 47 48 49 50
000
ASUS44 KLIX 240013
RWRLIX
NEW ORLEANS REGIONAL WEATHER ROUNDUP
NATIONAL WEATHER SERVICE NEW ORLEANS LA
700 PM CDT THU MAR 23 2017

NOTE: "FAIR" INDICATES FEW OR NO CLOUDS BELOW 12,000 FEET WITH NO
      SIGNIFICANT WEATHER AND/OR OBSTRUCTIONS TO VISIBILITY.
      SKY/WX - SKY CONDITION AND SIGNIFICANT WEATHER.
      TMP - AIR TEMPERATURE.     DP    - DEWPOINT TEMPERATURE.
      RH  - RELATIVE HUMIDITY.   PRES  - PRESSURE.
      HI  - HEAT INDEX.          WCI   - WIND CHILL INDEX.

*  THESE STATIONS ARE NOT NWS OR FAA STATIONS AND ARE NOT UNDER
   NWS QUALITY CONTROL.

LAZ038-040-048-061>063-065>067-069-240100-
SOUTHEAST LOUISIANA

CITY           SKY/WX    TMP DP  RH WIND       PRES   REMARKS
N.O. INTL ARPT PTCLDY    75  65  70 SE13      30.17R
6HR MIN TEMP:  75; 6HR MAX TEMP:  83;

N.O. LAKEFRONT CLEAR     73  67  81 E18       30.18R
6HR MIN TEMP:  73; 6HR MAX TEMP:  80;

N.O. DOWNTOWN*   N/A     76  66  71 VRB7      30.18R
6HR MIN TEMP:  75; 6HR MAX TEMP:  82;

RESERVE*         N/A     76  67  73 E7        30.16R
6HR MIN TEMP:  76; 6HR MAX TEMP:  86;

SLIDELL        MOCLDY    72  64  76 E9        30.19R
6HR MIN TEMP:  72; 6HR MAX TEMP:  81;

BATON ROUGE    CLEAR     78  63  59 E14       30.13R
6HR MIN TEMP:  78; 6HR MAX TEMP:  86;

BOOTHVILLE     MOCLDY    71  69  93 E7        30.19R
6HR MIN TEMP:  71; 6HR MAX TEMP:  77;

BELLE CHASSE   PTCLDY    77  66  68 E10       30.18R
BOGALUSA*        N/A     76  62  61 S9        30.19R
6HR MIN TEMP:  76; 6HR MAX TEMP:  85;

GALLIANO*      PTCLDY    74  65  74 E6        30.17R
6HR MIN TEMP:  74; 6HR MAX TEMP:  79;

NEW ROADS*       N/A     80  59  49 SE10      30.11S
6HR MIN TEMP:  79; 6HR MAX TEMP:  84;

GONZALES*        N/A     78  60  54 E5        30.14R
6HR MIN TEMP:  78; 6HR MAX TEMP:  85;

HAMMOND*       CLEAR     72  63  73 SE9       30.17R
HOUMA*         CLEAR     75  66  73 E12       30.15
PORT FOURCHON* CLEAR     73  66  78 SE10      30.18R

$$

MSZ070-080>082-240100-
SOUTHERN MISSISSIPPI

CITY           SKY/WX    TMP DP  RH WIND       PRES   REMARKS
MCCOMB         CLEAR     77  56  48 S9        30.15R
6HR MIN TEMP:  77; 6HR MAX TEMP:  84;

GULFPORT       CLOUDY    70  64  81 E15       30.21R
6HR MIN TEMP:  70; 6HR MAX TEMP:  76;

BILOXI         CLOUDY    70  64  80 SE17      30.21R
6HR MIN TEMP:  70; 6HR MAX TEMP:  77;

PASCAGOULA     MOCLDY    69  61  75 SE12      30.23R
6HR MIN TEMP:  69; 6HR MAX TEMP:  79;

STENNIS ARPT*  MOCLDY    70  63  78 SE9G16    30.21R

$$

COASTAL OBSERVATIONS
LAKE AND NEARSHORE STATIONS

STATION/POSITION TIME  TEMP    WIND        PRES    WAVE
                       AIR SEA DIR/SP/G            HT/PER
                 (UTC) (F)     (DEG/KT/KT) (MB)    (FT/S)
PASCAGOULA       2342   71     110/ 16/ 20 1023.0
WAVELAND YACHT   2342   69 71  120/ 13/ 17 1022.6
GRAND ISLE       2342   74 72  120/  6/  9 1021.6
SOUTHWEST PASS   2336          110/ 10/ 11   N/A
NEW CANAL        2342   74 74  100/  3/ 10 1021.6
SHELL BEACH      2342   72 76  100/ 15/ 18 1022.3

OFFSHORE STATIONS

STATION/POSITION TIME  TEMP    WIND        PRES    WAVE
                       AIR SEA DIR/SP/G            HT/PER
                 (UTC) (F)     (DEG/KT/KT) (MB)    (FT/S)
64 S DAUPHIN ISL 2350   72 73  110/ 14/ 17 1022.6    4/ 5

$$




USA.gov is the U.S. government's official web portal to all federal, state and local government web resources and services.